Year,Month,Day,Hour,Minute,Value (Times are PST for temperature in C)
2012,08,25,00,00,12.70
2012,08,25,00,01,12.70
2012,08,25,00,02,12.70
2012,08,25,00,03,12.70
2012,08,25,00,04,12.60
2012,08,25,00,05,12.60
2012,08,25,00,06,12.60
2012,08,25,00,07,12.60
2012,08,25,00,08,12.60
2012,08,25,00,09,12.60
2012,08,25,00,10,12.60
2012,08,25,00,11,12.60
2012,08,25,00,12,12.50
2012,08,25,00,13,12.50
2012,08,25,00,14,12.50
2012,08,25,00,15,12.50
2012,08,25,00,16,12.50
2012,08,25,00,17,12.40
2012,08,25,00,18,12.40
2012,08,25,00,19,12.40
2012,08,25,00,20,12.40
2012,08,25,00,21,12.40
2012,08,25,00,22,12.40
2012,08,25,00,23,12.30
2012,08,25,00,24,12.30
2012,08,25,00,25,12.30
2012,08,25,00,26,12.30
2012,08,25,00,27,12.30
2012,08,25,00,28,12.30
2012,08,25,00,29,12.30
2012,08,25,00,30,12.20
2012,08,25,00,31,12.20
2012,08,25,00,32,12.20
2012,08,25,00,33,12.20
2012,08,25,00,34,12.20
2012,08,25,00,35,12.20
2012,08,25,00,36,12.20
2012,08,25,00,37,12.10
2012,08,25,00,38,12.10
2012,08,25,00,39,12.10
2012,08,25,00,40,12.10
2012,08,25,00,41,12.10
2012,08,25,00,42,12.00
2012,08,25,00,43,12.00
2012,08,25,00,44,12.00
2012,08,25,00,45,12.00
2012,08,25,00,46,11.90
2012,08,25,00,47,11.90
2012,08,25,00,48,11.90
2012,08,25,00,49,11.90
2012,08,25,00,50,11.90
2012,08,25,00,51,11.80
2012,08,25,00,52,11.80
2012,08,25,00,53,11.80
2012,08,25,00,54,11.80
2012,08,25,00,55,11.70
2012,08,25,00,56,11.70
2012,08,25,00,57,11.70
2012,08,25,00,58,11.70
2012,08,25,00,59,11.70
2012,08,25,01,00,11.70
2012,08,25,01,01,11.60
2012,08,25,01,02,11.60
2012,08,25,01,03,11.60
2012,08,25,01,04,11.60
2012,08,25,01,05,11.60
2012,08,25,01,06,11.60
2012,08,25,01,07,11.60
2012,08,25,01,08,11.60
2012,08,25,01,09,11.50
2012,08,25,01,10,11.50
2012,08,25,01,11,11.50
2012,08,25,01,12,11.40
2012,08,25,01,13,11.40
2012,08,25,01,14,11.40
2012,08,25,01,15,11.30
2012,08,25,01,16,11.30
2012,08,25,01,17,11.30
2012,08,25,01,18,11.30
2012,08,25,01,19,11.20
2012,08,25,01,20,11.20
2012,08,25,01,21,11.20
2012,08,25,01,22,11.20
2012,08,25,01,23,11.10
2012,08,25,01,24,11.10
2012,08,25,01,25,11.10
2012,08,25,01,26,11.10
2012,08,25,01,27,11.00
2012,08,25,01,28,11.00
2012,08,25,01,29,11.00
2012,08,25,01,30,10.90
2012,08,25,01,31,10.90
2012,08,25,01,32,10.90
2012,08,25,01,33,10.90
2012,08,25,01,34,10.90
2012,08,25,01,35,10.80
2012,08,25,01,36,10.80
2012,08,25,01,37,10.80
2012,08,25,01,38,10.90
2012,08,25,01,39,10.90
2012,08,25,01,40,10.90
2012,08,25,01,41,10.90
2012,08,25,01,42,11.00
2012,08,25,01,43,11.00
2012,08,25,01,44,11.00
2012,08,25,01,45,11.00
2012,08,25,01,46,11.00
2012,08,25,01,47,11.00
2012,08,25,01,48,11.00
2012,08,25,01,49,11.00
2012,08,25,01,50,11.00
2012,08,25,01,51,10.90
2012,08,25,01,52,10.90
2012,08,25,01,53,10.90
2012,08,25,01,54,10.90
2012,08,25,01,55,10.90
2012,08,25,01,56,10.90
2012,08,25,01,57,10.90
2012,08,25,01,58,10.90
2012,08,25,01,59,10.90
2012,08,25,02,00,10.90
2012,08,25,02,01,10.80
2012,08,25,02,02,10.80
2012,08,25,02,03,10.80
2012,08,25,02,04,10.80
2012,08,25,02,05,10.80
2012,08,25,02,06,10.80
2012,08,25,02,07,10.80
2012,08,25,02,08,10.80
2012,08,25,02,09,10.80
2012,08,25,02,10,10.80
2012,08,25,02,11,10.80
2012,08,25,02,12,10.80
2012,08,25,02,13,10.80
2012,08,25,02,14,10.70
2012,08,25,02,15,10.70
2012,08,25,02,16,10.70
2012,08,25,02,17,10.70
2012,08,25,02,18,10.70
2012,08,25,02,19,10.70
2012,08,25,02,20,10.70
2012,08,25,02,21,10.60
2012,08,25,02,22,10.60
2012,08,25,02,23,10.60
2012,08,25,02,24,10.60
2012,08,25,02,25,10.60
2012,08,25,02,26,10.60
2012,08,25,02,27,10.60
2012,08,25,02,28,10.60
2012,08,25,02,29,10.60
2012,08,25,02,30,10.60
2012,08,25,02,31,10.60
2012,08,25,02,32,10.50
2012,08,25,02,33,10.50
2012,08,25,02,34,10.50
2012,08,25,02,35,10.50
2012,08,25,02,36,10.50
2012,08,25,02,37,10.40
2012,08,25,02,38,10.40
2012,08,25,02,39,10.40
2012,08,25,02,40,10.40
2012,08,25,02,41,10.40
2012,08,25,02,42,10.40
2012,08,25,02,43,10.40
2012,08,25,02,44,10.40
2012,08,25,02,45,10.40
2012,08,25,02,46,10.40
2012,08,25,02,47,10.30
2012,08,25,02,48,10.30
2012,08,25,02,49,10.30
2012,08,25,02,50,10.30
2012,08,25,02,51,10.30
2012,08,25,02,52,10.30
2012,08,25,02,53,10.30
2012,08,25,02,54,10.20
2012,08,25,02,55,10.20
2012,08,25,02,56,10.20
2012,08,25,02,57,10.20
2012,08,25,02,58,10.20
2012,08,25,02,59,10.20
2012,08,25,03,00,10.10
2012,08,25,03,01,10.10
2012,08,25,03,02,10.10
2012,08,25,03,03,10.10
2012,08,25,03,04,10.10
2012,08,25,03,05,10.10
2012,08,25,03,06,10.10
2012,08,25,03,07,10.10
2012,08,25,03,08,10.10
2012,08,25,03,09,10.10
2012,08,25,03,10,10.10
2012,08,25,03,11,10.10
2012,08,25,03,12,10.10
2012,08,25,03,13,10.10
2012,08,25,03,14,10.10
2012,08,25,03,15,10.00
2012,08,25,03,16,10.00
2012,08,25,03,17,10.00
2012,08,25,03,18,10.00
2012,08,25,03,19,9.90
2012,08,25,03,20,9.90
2012,08,25,03,21,9.90
2012,08,25,03,22,10.00
2012,08,25,03,23,10.00
2012,08,25,03,24,10.10
2012,08,25,03,25,10.10
2012,08,25,03,26,10.20
2012,08,25,03,27,10.20
2012,08,25,03,28,10.20
2012,08,25,03,29,10.20
2012,08,25,03,30,10.20
2012,08,25,03,31,10.20
2012,08,25,03,32,10.20
2012,08,25,03,33,10.20
2012,08,25,03,34,10.20
2012,08,25,03,35,10.20
2012,08,25,03,36,10.20
2012,08,25,03,37,10.10
2012,08,25,03,38,10.10
2012,08,25,03,39,10.10
2012,08,25,03,40,10.10
2012,08,25,03,41,10.10
2012,08,25,03,42,10.10
2012,08,25,03,43,10.10
2012,08,25,03,44,10.10
2012,08,25,03,45,10.10
2012,08,25,03,46,10.10
2012,08,25,03,47,10.10
2012,08,25,03,48,10.10
2012,08,25,03,49,10.10
2012,08,25,03,50,10.20
2012,08,25,03,51,10.20
2012,08,25,03,52,10.20
2012,08,25,03,53,10.30
2012,08,25,03,54,10.30
2012,08,25,03,55,10.30
2012,08,25,03,56,10.40
2012,08,25,03,57,10.40
2012,08,25,03,58,10.40
2012,08,25,03,59,10.50
2012,08,25,04,00,10.50
2012,08,25,04,01,10.60
2012,08,25,04,02,10.60
2012,08,25,04,03,10.70
2012,08,25,04,04,10.70
2012,08,25,04,05,10.70
2012,08,25,04,06,10.70
2012,08,25,04,07,10.70
2012,08,25,04,08,10.70
2012,08,25,04,09,10.60
2012,08,25,04,10,10.60
2012,08,25,04,11,10.60
2012,08,25,04,12,10.60
2012,08,25,04,13,10.50
2012,08,25,04,14,10.50
2012,08,25,04,15,10.50
2012,08,25,04,16,10.40
2012,08,25,04,17,10.40
2012,08,25,04,18,10.40
2012,08,25,04,19,10.40
2012,08,25,04,20,10.30
2012,08,25,04,21,10.30
2012,08,25,04,22,10.30
2012,08,25,04,23,10.30
2012,08,25,04,24,10.30
2012,08,25,04,25,10.30
2012,08,25,04,26,10.40
2012,08,25,04,27,10.40
2012,08,25,04,28,10.40
2012,08,25,04,29,10.40
2012,08,25,04,30,10.40
2012,08,25,04,31,10.40
2012,08,25,04,32,10.40
2012,08,25,04,33,10.40
2012,08,25,04,34,10.40
2012,08,25,04,35,10.40
2012,08,25,04,36,10.40
2012,08,25,04,37,10.40
2012,08,25,04,38,10.40
2012,08,25,04,39,10.40
2012,08,25,04,40,10.40
2012,08,25,04,41,10.40
2012,08,25,04,42,10.50
2012,08,25,04,43,10.50
2012,08,25,04,44,10.60
2012,08,25,04,45,10.60
2012,08,25,04,46,10.60
2012,08,25,04,47,10.60
2012,08,25,04,48,10.70
2012,08,25,04,49,10.70
2012,08,25,04,50,10.70
2012,08,25,04,51,10.80
2012,08,25,04,52,10.80
2012,08,25,04,53,10.80
2012,08,25,04,54,10.80
2012,08,25,04,55,10.80
2012,08,25,04,56,10.80
2012,08,25,04,57,10.80
2012,08,25,04,58,10.80
2012,08,25,04,59,10.80
2012,08,25,05,00,10.80
2012,08,25,05,01,10.80
2012,08,25,05,02,10.80
2012,08,25,05,03,10.80
2012,08,25,05,04,10.80
2012,08,25,05,05,10.80
2012,08,25,05,06,10.80
2012,08,25,05,07,10.80
2012,08,25,05,08,10.80
2012,08,25,05,09,10.80
2012,08,25,05,10,10.80
2012,08,25,05,11,10.80
2012,08,25,05,12,10.80
2012,08,25,05,13,10.80
2012,08,25,05,14,10.80
2012,08,25,05,15,10.80
2012,08,25,05,16,10.80
2012,08,25,05,17,10.80
2012,08,25,05,18,10.90
2012,08,25,05,19,10.90
2012,08,25,05,20,10.90
2012,08,25,05,21,10.90
2012,08,25,05,22,10.90
2012,08,25,05,23,10.90
2012,08,25,05,24,10.90
2012,08,25,05,25,10.90
2012,08,25,05,26,10.90
2012,08,25,05,27,10.90
2012,08,25,05,28,10.90
2012,08,25,05,29,10.90
2012,08,25,05,30,10.90
2012,08,25,05,31,10.80
2012,08,25,05,32,10.80
2012,08,25,05,33,10.80
2012,08,25,05,34,10.80
2012,08,25,05,35,10.80
2012,08,25,05,36,10.80
2012,08,25,05,37,10.80
2012,08,25,05,38,10.80
2012,08,25,05,39,10.80
2012,08,25,05,40,10.70
2012,08,25,05,41,10.70
2012,08,25,05,42,10.70
2012,08,25,05,43,10.70
2012,08,25,05,44,10.70
2012,08,25,05,45,10.70
2012,08,25,05,46,10.70
2012,08,25,05,47,10.70
2012,08,25,05,48,10.70
2012,08,25,05,49,10.70
2012,08,25,05,50,10.70
2012,08,25,05,51,10.60
2012,08,25,05,52,10.60
2012,08,25,05,53,10.60
2012,08,25,05,54,10.60
2012,08,25,05,55,10.50
2012,08,25,05,56,10.50
2012,08,25,05,57,10.50
2012,08,25,05,58,10.40
2012,08,25,05,59,10.40
2012,08,25,06,00,10.40
2012,08,25,06,01,10.30
2012,08,25,06,02,10.30
2012,08,25,06,03,10.30
2012,08,25,06,04,10.30
2012,08,25,06,05,10.20
2012,08,25,06,06,10.20
2012,08,25,06,07,10.20
2012,08,25,06,08,10.20
2012,08,25,06,09,10.10
2012,08,25,06,10,10.10
2012,08,25,06,11,10.10
2012,08,25,06,12,10.10
2012,08,25,06,13,10.00
2012,08,25,06,14,10.00
2012,08,25,06,15,10.00
2012,08,25,06,16,9.90
2012,08,25,06,17,9.90
2012,08,25,06,18,9.90
2012,08,25,06,19,9.90
2012,08,25,06,20,9.90
2012,08,25,06,21,9.90
2012,08,25,06,22,9.90
2012,08,25,06,23,9.90
2012,08,25,06,24,9.80
2012,08,25,06,25,9.80
2012,08,25,06,26,9.80
2012,08,25,06,27,9.80
2012,08,25,06,28,9.80
2012,08,25,06,29,9.80
2012,08,25,06,30,9.70
2012,08,25,06,31,9.70
2012,08,25,06,32,9.70
2012,08,25,06,33,9.70
2012,08,25,06,34,9.70
2012,08,25,06,35,9.70
2012,08,25,06,36,9.70
2012,08,25,06,37,9.70
2012,08,25,06,38,9.70
2012,08,25,06,39,9.70
2012,08,25,06,40,9.70
2012,08,25,06,41,9.60
2012,08,25,06,42,9.60
2012,08,25,06,43,9.60
2012,08,25,06,44,9.60
2012,08,25,06,45,9.60
2012,08,25,06,46,9.60
2012,08,25,06,47,9.60
2012,08,25,06,48,9.60
2012,08,25,06,49,9.60
2012,08,25,06,50,9.60
2012,08,25,06,51,9.60
2012,08,25,06,52,9.60
2012,08,25,06,53,9.60
2012,08,25,06,54,9.60
2012,08,25,06,55,9.60
2012,08,25,06,56,9.60
2012,08,25,06,57,9.60
2012,08,25,06,58,9.60
2012,08,25,06,59,9.60
2012,08,25,07,00,9.60
2012,08,25,07,01,9.60
2012,08,25,07,02,9.60
2012,08,25,07,03,9.60
2012,08,25,07,04,9.60
2012,08,25,07,05,9.60
2012,08,25,07,06,9.60
2012,08,25,07,07,9.60
2012,08,25,07,08,9.60
2012,08,25,07,09,9.60
2012,08,25,07,10,9.60
2012,08,25,07,11,9.60
2012,08,25,07,12,9.60
2012,08,25,07,13,9.60
2012,08,25,07,14,9.60
2012,08,25,07,15,9.60
2012,08,25,07,16,9.60
2012,08,25,07,17,9.70
2012,08,25,07,18,9.70
2012,08,25,07,19,9.70
2012,08,25,07,20,9.70
2012,08,25,07,21,9.70
2012,08,25,07,22,9.70
2012,08,25,07,23,9.70
2012,08,25,07,24,9.70
2012,08,25,07,25,9.80
2012,08,25,07,26,9.80
2012,08,25,07,27,9.80
2012,08,25,07,28,9.80
2012,08,25,07,29,9.80
2012,08,25,07,30,9.80
2012,08,25,07,31,9.90
2012,08,25,07,32,9.90
2012,08,25,07,33,9.90
2012,08,25,07,34,9.90
2012,08,25,07,35,9.90
2012,08,25,07,36,9.90
2012,08,25,07,37,9.90
2012,08,25,07,38,10.00
2012,08,25,07,39,10.00
2012,08,25,07,40,10.00
2012,08,25,07,41,10.10
2012,08,25,07,42,10.10
2012,08,25,07,43,10.10
2012,08,25,07,44,10.20
2012,08,25,07,45,10.20
2012,08,25,07,46,10.20
2012,08,25,07,47,10.30
2012,08,25,07,48,10.30
2012,08,25,07,49,10.30
2012,08,25,07,50,10.40
2012,08,25,07,51,10.40
2012,08,25,07,52,10.50
2012,08,25,07,53,10.50
2012,08,25,07,54,10.60
2012,08,25,07,55,10.60
2012,08,25,07,56,10.70
2012,08,25,07,57,10.80
2012,08,25,07,58,10.80
2012,08,25,07,59,10.90
2012,08,25,08,00,11.00
2012,08,25,08,01,11.00
2012,08,25,08,02,11.10
2012,08,25,08,03,11.20
2012,08,25,08,04,11.30
2012,08,25,08,05,11.40
2012,08,25,08,06,11.40
2012,08,25,08,07,11.50
2012,08,25,08,08,11.70
2012,08,25,08,09,11.70
2012,08,25,08,10,11.80
2012,08,25,08,11,11.90
2012,08,25,08,12,12.00
2012,08,25,08,13,12.10
2012,08,25,08,14,12.20
2012,08,25,08,15,12.30
2012,08,25,08,16,12.50
2012,08,25,08,17,12.70
2012,08,25,08,18,13.00
2012,08,25,08,19,13.20
2012,08,25,08,20,13.40
2012,08,25,08,21,13.60
2012,08,25,08,22,13.80
2012,08,25,08,23,14.00
2012,08,25,08,24,14.20
2012,08,25,08,25,14.40
2012,08,25,08,26,14.60
2012,08,25,08,27,14.70
2012,08,25,08,28,14.90
2012,08,25,08,29,15.00
2012,08,25,08,30,15.20
2012,08,25,08,31,15.20
2012,08,25,08,32,15.30
2012,08,25,08,33,15.40
2012,08,25,08,34,15.50
2012,08,25,08,35,15.50
2012,08,25,08,36,15.60
2012,08,25,08,37,15.60
2012,08,25,08,38,15.70
2012,08,25,08,39,15.70
2012,08,25,08,40,15.70
2012,08,25,08,41,15.80
2012,08,25,08,42,15.80
2012,08,25,08,43,15.80
2012,08,25,08,44,15.80
2012,08,25,08,45,15.80
2012,08,25,08,46,15.90
2012,08,25,08,47,15.90
2012,08,25,08,48,15.90
2012,08,25,08,49,16.00
2012,08,25,08,50,16.00
2012,08,25,08,51,16.10
2012,08,25,08,52,16.10
2012,08,25,08,53,16.20
2012,08,25,08,54,16.20
2012,08,25,08,55,16.20
2012,08,25,08,56,16.30
2012,08,25,08,57,16.30
2012,08,25,08,58,16.30
2012,08,25,08,59,16.30
2012,08,25,09,00,16.40
2012,08,25,09,01,16.40
2012,08,25,09,02,16.50
2012,08,25,09,03,16.50
2012,08,25,09,04,16.60
2012,08,25,09,05,16.60
2012,08,25,09,06,16.60
2012,08,25,09,07,16.60
2012,08,25,09,08,16.60
2012,08,25,09,09,16.60
2012,08,25,09,10,16.70
2012,08,25,09,11,16.70
2012,08,25,09,12,16.80
2012,08,25,09,13,16.80
2012,08,25,09,14,16.80
2012,08,25,09,15,16.80
2012,08,25,09,16,16.90
2012,08,25,09,17,16.90
2012,08,25,09,18,16.90
2012,08,25,09,19,17.00
2012,08,25,09,20,17.00
2012,08,25,09,21,17.10
2012,08,25,09,22,17.10
2012,08,25,09,23,17.20
2012,08,25,09,24,17.20
2012,08,25,09,25,17.20
2012,08,25,09,26,17.30
2012,08,25,09,27,17.30
2012,08,25,09,28,17.40
2012,08,25,09,29,17.40
2012,08,25,09,30,17.50
2012,08,25,09,31,17.50
2012,08,25,09,32,17.60
2012,08,25,09,33,17.60
2012,08,25,09,34,17.60
2012,08,25,09,35,17.60
2012,08,25,09,36,17.70
2012,08,25,09,37,17.70
2012,08,25,09,38,17.70
2012,08,25,09,39,17.80
2012,08,25,09,40,17.80
2012,08,25,09,41,17.90
2012,08,25,09,42,17.90
2012,08,25,09,43,17.90
2012,08,25,09,44,17.80
2012,08,25,09,45,17.70
2012,08,25,09,46,17.60
2012,08,25,09,47,17.30
2012,08,25,09,48,17.00
2012,08,25,09,49,16.80
2012,08,25,09,50,16.60
2012,08,25,09,51,16.40
2012,08,25,09,52,16.20
2012,08,25,09,53,16.10
2012,08,25,09,54,16.00
2012,08,25,09,55,16.00
2012,08,25,09,56,16.00
2012,08,25,09,57,15.90
2012,08,25,09,58,15.90
2012,08,25,09,59,15.90
2012,08,25,10,00,15.90
2012,08,25,10,01,15.90
2012,08,25,10,02,15.90
2012,08,25,10,03,16.00
2012,08,25,10,04,16.00
2012,08,25,10,05,16.10
2012,08,25,10,06,16.20
2012,08,25,10,07,16.30
2012,08,25,10,08,16.40
2012,08,25,10,09,16.40
2012,08,25,10,10,16.50
2012,08,25,10,11,16.60
2012,08,25,10,12,16.70
2012,08,25,10,13,16.80
2012,08,25,10,14,16.90
2012,08,25,10,15,16.90
2012,08,25,10,16,17.00
2012,08,25,10,17,17.00
2012,08,25,10,18,17.10
2012,08,25,10,19,17.10
2012,08,25,10,20,17.20
2012,08,25,10,21,17.20
2012,08,25,10,22,17.20
2012,08,25,10,23,17.30
2012,08,25,10,24,17.30
2012,08,25,10,25,17.30
2012,08,25,10,26,17.30
2012,08,25,10,27,17.40
2012,08,25,10,28,17.40
2012,08,25,10,29,17.40
2012,08,25,10,30,17.40
2012,08,25,10,31,17.50
2012,08,25,10,32,17.50
2012,08,25,10,33,17.60
2012,08,25,10,34,17.60
2012,08,25,10,35,17.60
2012,08,25,10,36,17.60
2012,08,25,10,37,17.60
2012,08,25,10,38,17.60
2012,08,25,10,39,17.60
2012,08,25,10,40,17.60
2012,08,25,10,41,17.60
2012,08,25,10,42,17.60
2012,08,25,10,43,17.70
2012,08,25,10,44,17.80
2012,08,25,10,45,17.80
2012,08,25,10,46,17.90
2012,08,25,10,47,17.90
2012,08,25,10,48,18.00
2012,08,25,10,49,18.00
2012,08,25,10,50,18.10
2012,08,25,10,51,18.10
2012,08,25,10,52,18.10
2012,08,25,10,53,18.10
2012,08,25,10,54,18.10
2012,08,25,10,55,18.20
2012,08,25,10,56,18.20
2012,08,25,10,57,18.20
2012,08,25,10,58,18.10
2012,08,25,10,59,18.10
2012,08,25,11,00,18.10
2012,08,25,11,01,18.10
2012,08,25,11,02,18.20
2012,08,25,11,03,18.20
2012,08,25,11,04,18.20
2012,08,25,11,05,18.30
2012,08,25,11,06,18.30
2012,08,25,11,07,18.40
2012,08,25,11,08,18.50
2012,08,25,11,09,18.50
2012,08,25,11,10,18.60
2012,08,25,11,11,18.60
2012,08,25,11,12,18.60
2012,08,25,11,13,18.60
2012,08,25,11,14,18.60
2012,08,25,11,15,18.70
2012,08,25,11,16,18.60
2012,08,25,11,17,18.60
2012,08,25,11,18,18.60
2012,08,25,11,19,18.60
2012,08,25,11,20,18.60
2012,08,25,11,21,18.50
2012,08,25,11,22,18.50
2012,08,25,11,23,18.40
2012,08,25,11,24,18.40
2012,08,25,11,25,18.40
2012,08,25,11,26,18.50
2012,08,25,11,27,18.50
2012,08,25,11,28,18.50
2012,08,25,11,29,18.60
2012,08,25,11,30,18.60
2012,08,25,11,31,18.60
2012,08,25,11,32,18.60
2012,08,25,11,33,18.60
2012,08,25,11,34,18.70
2012,08,25,11,35,18.80
2012,08,25,11,36,18.90
2012,08,25,11,37,18.90
2012,08,25,11,38,19.00
2012,08,25,11,39,19.00
2012,08,25,11,40,19.10
2012,08,25,11,41,19.10
2012,08,25,11,42,19.10
2012,08,25,11,43,19.20
2012,08,25,11,44,19.30
2012,08,25,11,45,19.40
2012,08,25,11,46,19.50
2012,08,25,11,47,19.50
2012,08,25,11,48,19.50
2012,08,25,11,49,19.60
2012,08,25,11,50,19.60
2012,08,25,11,51,19.60
2012,08,25,11,52,19.70
2012,08,25,11,53,19.70
2012,08,25,11,54,19.80
2012,08,25,11,55,19.80
2012,08,25,11,56,19.80
2012,08,25,11,57,19.80
2012,08,25,11,58,19.80
2012,08,25,11,59,19.90
2012,08,25,12,00,19.90
2012,08,25,12,01,20.00
2012,08,25,12,02,20.10
2012,08,25,12,03,20.00
2012,08,25,12,04,19.90
2012,08,25,12,05,19.90
2012,08,25,12,06,19.80
2012,08,25,12,07,19.90
2012,08,25,12,08,19.90
2012,08,25,12,09,20.00
2012,08,25,12,10,20.10
2012,08,25,12,11,20.20
2012,08,25,12,12,20.20
2012,08,25,12,13,20.30
2012,08,25,12,14,20.30
2012,08,25,12,15,20.30
2012,08,25,12,16,20.40
2012,08,25,12,17,20.50
2012,08,25,12,18,20.60
2012,08,25,12,19,20.70
2012,08,25,12,20,20.70
2012,08,25,12,21,20.70
2012,08,25,12,22,20.80
2012,08,25,12,23,20.80
2012,08,25,12,24,20.90
2012,08,25,12,25,20.90
2012,08,25,12,26,21.00
2012,08,25,12,27,21.10
2012,08,25,12,28,21.20
2012,08,25,12,29,21.20
2012,08,25,12,30,21.30
2012,08,25,12,31,21.30
2012,08,25,12,32,21.30
2012,08,25,12,33,21.20
2012,08,25,12,34,21.10
2012,08,25,12,35,21.10
2012,08,25,12,36,21.10
2012,08,25,12,37,21.10
2012,08,25,12,38,21.10
2012,08,25,12,39,21.10
2012,08,25,12,40,21.20
2012,08,25,12,41,21.20
2012,08,25,12,42,21.10
2012,08,25,12,43,21.10
2012,08,25,12,44,21.10
2012,08,25,12,45,21.10
2012,08,25,12,46,21.10
2012,08,25,12,47,21.10
2012,08,25,12,48,21.10
2012,08,25,12,49,21.10
2012,08,25,12,50,21.20
2012,08,25,12,51,21.20
2012,08,25,12,52,21.30
2012,08,25,12,53,21.30
2012,08,25,12,54,21.30
2012,08,25,12,55,21.30
2012,08,25,12,56,21.40
2012,08,25,12,57,21.40
2012,08,25,12,58,21.50
2012,08,25,12,59,21.50
2012,08,25,13,00,21.60
2012,08,25,13,01,21.70
2012,08,25,13,02,21.80
2012,08,25,13,03,21.90
2012,08,25,13,04,22.00
2012,08,25,13,05,22.10
2012,08,25,13,06,22.10
2012,08,25,13,07,22.10
2012,08,25,13,08,22.20
2012,08,25,13,09,22.00
2012,08,25,13,10,21.80
2012,08,25,13,11,21.60
2012,08,25,13,12,21.30
2012,08,25,13,13,21.10
2012,08,25,13,14,21.00
2012,08,25,13,15,21.00
2012,08,25,13,16,21.00
2012,08,25,13,17,21.10
2012,08,25,13,18,21.30
2012,08,25,13,19,21.40
2012,08,25,13,20,21.50
2012,08,25,13,21,21.60
2012,08,25,13,22,21.50
2012,08,25,13,23,21.50
2012,08,25,13,24,21.40
2012,08,25,13,25,21.40
2012,08,25,13,26,21.50
2012,08,25,13,27,21.50
2012,08,25,13,28,21.60
2012,08,25,13,29,21.60
2012,08,25,13,30,21.50
2012,08,25,13,31,21.40
2012,08,25,13,32,21.50
2012,08,25,13,33,21.50
2012,08,25,13,34,21.50
2012,08,25,13,35,21.40
2012,08,25,13,36,21.30
2012,08,25,13,37,21.20
2012,08,25,13,38,21.20
2012,08,25,13,39,21.10
2012,08,25,13,40,21.10
2012,08,25,13,41,21.10
2012,08,25,13,42,21.10
2012,08,25,13,43,21.20
2012,08,25,13,44,21.30
2012,08,25,13,45,21.50
2012,08,25,13,46,21.60
2012,08,25,13,47,21.70
2012,08,25,13,48,21.80
2012,08,25,13,49,21.90
2012,08,25,13,50,22.00
2012,08,25,13,51,22.10
2012,08,25,13,52,22.10
2012,08,25,13,53,22.20
2012,08,25,13,54,22.30
2012,08,25,13,55,22.30
2012,08,25,13,56,22.50
2012,08,25,13,57,22.60
2012,08,25,13,58,22.70
2012,08,25,13,59,22.70
2012,08,25,14,00,22.70
2012,08,25,14,01,22.60
2012,08,25,14,02,22.60
2012,08,25,14,03,22.60
2012,08,25,14,04,22.70
2012,08,25,14,05,22.70
2012,08,25,14,06,22.70
2012,08,25,14,07,22.60
2012,08,25,14,08,22.50
2012,08,25,14,09,22.40
2012,08,25,14,10,22.30
2012,08,25,14,11,22.20
2012,08,25,14,12,22.20
2012,08,25,14,13,22.20
2012,08,25,14,14,22.30
2012,08,25,14,15,22.40
2012,08,25,14,16,22.40
2012,08,25,14,17,22.30
2012,08,25,14,18,22.20
2012,08,25,14,19,22.10
2012,08,25,14,20,22.10
2012,08,25,14,21,22.20
2012,08,25,14,22,22.20
2012,08,25,14,23,22.20
2012,08,25,14,24,22.20
2012,08,25,14,25,22.20
2012,08,25,14,26,22.20
2012,08,25,14,27,22.30
2012,08,25,14,28,22.30
2012,08,25,14,29,22.30
2012,08,25,14,30,22.30
2012,08,25,14,31,22.20
2012,08,25,14,32,22.20
2012,08,25,14,33,22.20
2012,08,25,14,34,22.20
2012,08,25,14,35,22.20
2012,08,25,14,36,22.10
2012,08,25,14,37,22.10
2012,08,25,14,38,22.00
2012,08,25,14,39,22.00
2012,08,25,14,40,22.00
2012,08,25,14,41,21.90
2012,08,25,14,42,21.90
2012,08,25,14,43,21.90
2012,08,25,14,44,22.00
2012,08,25,14,45,22.00
2012,08,25,14,46,22.00
2012,08,25,14,47,22.00
2012,08,25,14,48,22.10
2012,08,25,14,49,22.20
2012,08,25,14,50,22.20
2012,08,25,14,51,22.30
2012,08,25,14,52,22.30
2012,08,25,14,53,22.30
2012,08,25,14,54,22.30
2012,08,25,14,55,22.30
2012,08,25,14,56,22.20
2012,08,25,14,57,22.10
2012,08,25,14,58,22.10
2012,08,25,14,59,22.00
2012,08,25,15,00,22.00
2012,08,25,15,01,22.00
2012,08,25,15,02,22.10
2012,08,25,15,03,22.10
2012,08,25,15,04,22.20
2012,08,25,15,05,22.30
2012,08,25,15,06,22.30
2012,08,25,15,07,22.20
2012,08,25,15,08,22.10
2012,08,25,15,09,22.10
2012,08,25,15,10,22.10
2012,08,25,15,11,22.10
2012,08,25,15,12,22.20
2012,08,25,15,13,22.20
2012,08,25,15,14,22.10
2012,08,25,15,15,22.10
2012,08,25,15,16,22.00
2012,08,25,15,17,22.00
2012,08,25,15,18,22.10
2012,08,25,15,19,22.10
2012,08,25,15,20,22.10
2012,08,25,15,21,22.20
2012,08,25,15,22,22.20
2012,08,25,15,23,22.30
2012,08,25,15,24,22.30
2012,08,25,15,25,22.30
2012,08,25,15,26,22.40
2012,08,25,15,27,22.50
2012,08,25,15,28,22.50
2012,08,25,15,29,22.60
2012,08,25,15,30,22.60
2012,08,25,15,31,22.50
2012,08,25,15,32,22.40
2012,08,25,15,33,22.30
2012,08,25,15,34,22.20
2012,08,25,15,35,22.20
2012,08,25,15,36,22.20
2012,08,25,15,37,22.10
2012,08,25,15,38,22.00
2012,08,25,15,39,22.00
2012,08,25,15,40,22.00
2012,08,25,15,41,22.00
2012,08,25,15,42,22.00
2012,08,25,15,43,21.90
2012,08,25,15,44,21.80
2012,08,25,15,45,21.80
2012,08,25,15,46,21.80
2012,08,25,15,47,21.80
2012,08,25,15,48,21.80
2012,08,25,15,49,21.90
2012,08,25,15,50,21.90
2012,08,25,15,51,21.80
2012,08,25,15,52,21.70
2012,08,25,15,53,21.60
2012,08,25,15,54,21.60
2012,08,25,15,55,21.60
2012,08,25,15,56,21.60
2012,08,25,15,57,21.60
2012,08,25,15,58,21.60
2012,08,25,15,59,21.60
2012,08,25,16,00,21.60
2012,08,25,16,01,21.60
2012,08,25,16,02,21.60
2012,08,25,16,03,21.50
2012,08,25,16,04,21.50
2012,08,25,16,05,21.40
2012,08,25,16,06,21.40
2012,08,25,16,07,21.40
2012,08,25,16,08,21.30
2012,08,25,16,09,21.30
2012,08,25,16,10,21.30
2012,08,25,16,11,21.20
2012,08,25,16,12,21.20
2012,08,25,16,13,21.20
2012,08,25,16,14,21.10
2012,08,25,16,15,21.10
2012,08,25,16,16,21.10
2012,08,25,16,17,21.10
2012,08,25,16,18,21.20
2012,08,25,16,19,21.20
2012,08,25,16,20,21.20
2012,08,25,16,21,21.30
2012,08,25,16,22,21.40
2012,08,25,16,23,21.40
2012,08,25,16,24,21.40
2012,08,25,16,25,21.40
2012,08,25,16,26,21.30
2012,08,25,16,27,21.30
2012,08,25,16,28,21.20
2012,08,25,16,29,21.20
2012,08,25,16,30,21.30
2012,08,25,16,31,21.30
2012,08,25,16,32,21.30
2012,08,25,16,33,21.40
2012,08,25,16,34,21.50
2012,08,25,16,35,21.50
2012,08,25,16,36,21.60
2012,08,25,16,37,21.70
2012,08,25,16,38,21.70
2012,08,25,16,39,21.70
2012,08,25,16,40,21.70
2012,08,25,16,41,21.80
2012,08,25,16,42,21.80
2012,08,25,16,43,21.80
2012,08,25,16,44,21.70
2012,08,25,16,45,21.60
2012,08,25,16,46,21.50
2012,08,25,16,47,21.50
2012,08,25,16,48,21.50
2012,08,25,16,49,21.40
2012,08,25,16,50,21.40
2012,08,25,16,51,21.40
2012,08,25,16,52,21.40
2012,08,25,16,53,21.40
2012,08,25,16,54,21.30
2012,08,25,16,55,21.30
2012,08,25,16,56,21.30
2012,08,25,16,57,21.20
2012,08,25,16,58,21.20
2012,08,25,16,59,21.30
2012,08,25,17,00,21.30
2012,08,25,17,01,21.30
2012,08,25,17,02,21.40
2012,08,25,17,03,21.40
2012,08,25,17,04,21.40
2012,08,25,17,05,21.50
2012,08,25,17,06,21.50
2012,08,25,17,07,21.60
2012,08,25,17,08,21.60
2012,08,25,17,09,21.60
2012,08,25,17,10,21.60
2012,08,25,17,11,21.50
2012,08,25,17,12,21.50
2012,08,25,17,13,21.40
2012,08,25,17,14,21.40
2012,08,25,17,15,21.40
2012,08,25,17,16,21.40
2012,08,25,17,17,21.40
2012,08,25,17,18,21.40
2012,08,25,17,19,21.30
2012,08,25,17,20,21.30
2012,08,25,17,21,21.30
2012,08,25,17,22,21.30
2012,08,25,17,23,21.30